This demonstration page uses our WeatherBlox Daily Observations layout. Learn more.

Left ArrowRight Arrow

Hourly Observations for April 14, 2015

Temp ( °F °C ) Dew Point ( °F °C ) Humidity (%) Winds ( mph kmh ) Pressure ( in mb ) Visibility ( mi km ) Precip ( " mm )
12:53 am 00:53 Clear 49 9.4 28 -2.2 44 44 S 7 11 30.23 1024 10 16 0.00 0.00
1:53 am 01:53 Clear 49 9.4 29 -1.7 46 46 SSW 7 11 30.23 1024 10 16 0.00 0.00
2:53 am 02:53 Clear 48 8.9 29 -1.7 48 48 SSW 7 11 30.22 1023 10 16 0.00 0.00
3:53 am 03:53 Clear 47 8.3 29 -1.7 50 50 SSW 7 11 30.21 1023 10 16 0.00 0.00
4:53 am 04:53 Clear 44 6.7 28 -2.2 53 53 S 6 9 30.20 1023 10 16 0.00 0.00
5:53 am 05:53 Clear 42 5.6 28 -2.2 58 58 S 7 11 30.21 1023 10 16 0.00 0.00
6:53 am 06:53 Clear 42 5.6 27 -2.8 55 55 SSW 6 9 30.22 1023 10 16 0.00 0.00
7:53 am 07:53 Sunny 44 6.7 28 -2.2 53 53 SSW 6 9 30.22 1024 10 16 0.00 0.00
8:53 am 08:53 Sunny 49 9.4 31 -0.6 50 50 S 6 9 30.23 1024 10 16 0.00 0.00
9:53 am 09:53 Sunny 58 14.4 30 -1.1 35 35 S 12 19 30.21 1023 10 16 0.00 0.00
10:53 am 10:53 Sunny 65 18.3 29 -1.7 26 26 S 14 22 30.20 1023 10 16 0.00 0.00
11:53 am 11:53 Sunny 66 18.9 28 -2.2 24 24 S 14 22 30.19 1023 10 16 0.00 0.00
12:53 pm 12:53 Sunny 68 20 28 -2.2 22 22 S 18 30 30.17 1022 10 16 0.00 0.00
1:53 pm 13:53 Sunny 67 19.4 27 -2.8 22 22 S 14 22 30.14 1021 10 16 0.00 0.00
2:53 pm 14:53 Sunny 68 20 25 -3.9 20 20 S 14 22 30.11 1020 10 16 0.00 0.00
3:53 pm 15:53 Sunny 69 20.6 26 -3.3 20 20 SE 21 33 30.09 1019 10 16 0.00 0.00
4:53 pm 16:53 Sunny 69 20.6 26 -3.3 20 20 SSE 18 30 30.06 1018 10 16 0.00 0.00
5:53 pm 17:53 Sunny 67 19.4 24 -4.4 20 20 SE 21 33 30.06 1018 10 16 0.00 0.00
6:53 pm 18:53 Sunny 64 17.8 25 -3.9 23 23 SSE 16 26 30.05 1018 10 16 0.00 0.00
7:53 pm 19:53 Sunny 62 16.7 26 -3.3 25 25 SE 14 22 30.04 1017 10 16 0.00 0.00
8:53 pm 20:53 Clear 58 14.4 27 -2.8 31 31 SE 12 19 30.03 1017 10 16 0.00 0.00
9:53 pm 21:53 Clear 57 13.9 28 -2.2 33 33 SE 14 22 30.03 1017 10 16 0.00 0.00
10:53 pm 22:53 Clear 53 11.7 29 -1.7 40 40 SE 12 19 30.02 1017 10 16 0.00 0.00
11:53 pm 23:53 Clear 51 10.6 30 -1.1 44 44 SE 13 20 30.02 1017 10 16 0.00 0.00

Powered by AerisWeather